Location: Aulnoy
(48.8410°N, 3.0967°E)
Time: 22:42:09
(UTC+00:00)

USA 81 - Pass Details

Date: 09 February 2023
Orbit: 785 x 787 km, 85.0° (Epoch: 29 March)

Event Time Altitude Azimuth Distance (km) Brightness Sun altitude
Rises 18:39:18 0° 182° (S) 3,267 7.3 -17.0°
Reaches altitude 10° 18:41:38 10° 182° (S) 2,343 6.6 -17.4°
Maximum altitude 18:46:54 85° 95° (E) 798 4.0 -18.3°
Drops below altitude 10° 18:52:13 10° 7° (N) 2,362 6.5 -19.2°
Sets 18:54:36 0° 7° (N) 3,296 7.2 -19.6°
